Wind_Speed
39 37 34 34 34 29 28 28 29 27 27 24 23 21 18 14 15 16 15 15 16 13 12 12 12 13 13 12 11 10 9 8 7 6 5 4 4 6 7 8 9 10 11
44 39 34 28 32 35 32 30 28 27 28 25 22 21 18 15 16 17 17 16 16 14 13 13 13 13 14 13 12 10 10 9 7 6 5 6 6 8 9 10 11 12 12
40 37 34 31 29 28 31 32 31 30 28 26 24 22 18 17 17 17 18 17 16 15 15 14 14 13 13 13 12 11 10 8 7 6 7 7 8 9 11 11 12 13 15
35 36 31 30 29 27 31 34 33 31 29 27 23 24 18 18 16 17 19 18 17 15 15 14 14 14 14 14 12 11 10 9 7 6 7 8 10 10 11 12 13 14 15
36 35 31 30 19 24 31 34 34 31 27 27 26 23 20 18 16 17 18 18 17 17 17 15 16 16 16 15 14 12 11 10 8 8 8 7 9 10 11 12 15 15 17
37 31 34 28 30 26 34 36 36 32 30 27 25 26 21 21 18 18 19 18 17 18 19 18 18 18 18 17 15 14 13 11 10 9 9 11 12 13 12 14 18 17 18
35 33 31 30 32 32 33 35 36 32 32 31 30 29 28 24 21 20 21 19 18 18 18 18 18 19 19 19 16 15 14 13 12 11 11 11 14 15 15 19 19 19 21
31 31 31 33 31 34 34 34 36 36 34 32 34 30 29 27 26 25 23 20 17 21 20 20 20 20 21 20 18 17 17 16 14 14 14 15 17 17 20 22 22 23 24
29 28 33 31 32 37 36 36 36 36 34 35 30 29 31 29 26 27 19 18 22 21 21 22 22 21 22 21 20 19 19 18 18 18 19 19 20 23 25 24 24 23 25
27 30 34 26 32 29 31 40 42 35 37 35 36 35 30 33 30 28 29 24 24 24 23 23 23 23 23 22 20 20 21 22 21 21 21 22 23 24 26 23 25 29 30
30 29 34 31 32 31 28 39 43 43 37 38 34 33 35 35 31 28 35 30 27 26 22 22 21 20 23 22 23 23 23 24 24 24 23 24 26 26 27 25 24 30 32
35 32 24 26 25 28 21 33 36 36 36 35 32 35 30 30 29 32 38 31 26 29 26 23 25 23 25 27 27 26 24 26 26 26 26 27 26 27 28 28 29 32 31
27 30 28 29 27 30 20 31 35 38 39 35 32 34 31 39 31 31 28 29 28 30 33 33 26 27 29 31 33 28 27 27 28 27 27 27 27 28 28 31 34 34 37
22 27 29 29 25 22 27 30 43 38 41 43 35 44 41 37 34 34 34 36 33 34 36 37 35 26 26 28 32 38 37 33 31 32 34 35 36 34 33 34 37 38 39
18 17 21 24 24 23 29 26 36 36 42 44 42 29 33 34 38 33 35 36 38 43 42 40 42 39 34 33 30 34 38 36 38 38 40 40 38 39 38 38 42 43 48
16 26 29 27 28 21 24 25 31 36 40 41 38 36 40 42 43 41 42 40 42 46 50 50 42 34 34 36 33 38 34 39 44 41 43 42 43 46 44 42 46 48 50
9 10 17 29 32 32 30 28 30 30 36 39 39 42 42 46 49 49 45 45 47 48 55 53 42 39 33 37 38 35 38 41 44 44 47 50 48 50 46 47 48 38 46
10 10 12 13 16 22 26 29 33 34 35 35 39 42 45 48 46 47 46 49 51 50 45 43 39 41 46 40 41 42 44 51 52 49 49 47 46 45 50 49 48 38 43
15 15 15 16 17 19 20 22 25 29 32 34 34 35 38 43 41 41 43 44 46 48 50 51 49 48 45 46 48 50 51 47 48 48 51 53 45 50 45 46 45 44 46
22 21 22 22 22 22 24 25 27 28 29 31 32 34 35 36 37 39 41 41 45 48 50 54 52 47 50 50 50 53 51 47 47 47 49 51 53 49 50 45 43 46 47
28 28 28 28 29 29 30 30 31 31 32 34 35 35 37 38 38 39 43 40 43 46 48 53 57 56 56 56 51 50 51 44 50 47 49 48 46 51 48 45 46 44 50
32 33 33 32 34 35 35 36 36 38 38 39 39 39 40 41 40 41 44 43 46 48 48 50 53 56 55 54 53 49 49 51 49 48 50 48 48 45 49 47 50 47 53
26 27 27 26 29 31 35 38 39 42 44 45 44 44 45 45 44 45 46 48 48 50 52 51 56 56 57 55 56 58 57 54 55 57 51 55 50 50 51 57 53 52 56
30 30 30 30 30 31 28 28 29 35 42 45 46 48 50 50 50 50 50 52 52 53 54 56 58 59 60 60 60 60 59 57 58 59 59 61 62 65 64 58 61 59 53
35 37 39 40 38 37 37 38 38 35 36 35 41 44 45 48 51 53 55 55 56 56 56 57 59 60 59 59 60 60 62 61 60 62 65 70 64 66 64 60 61 58 56
37 39 40 43 43 45 48 49 53 55 58 50 44 39 41 42 44 46 53 55 58 59 55 60 60 62 61 61 62 60 59 74 68 74 76 68 71 71 65 61 53 50 50
Wind_Direction
209 197 188 192 194 203 209 208 204 200 202 193 193 194 196 195 207 213 207 206 215 198 201 200 194 194 192 193 192 195 200 200 205 218 237 255 266 274 280 284 285 287 292
184 180 183 180 189 198 211 207 210 204 207 199 194 193 194 204 216 213 212 207 212 198 202 203 200 202 208 211 208 203 208 211 219 236 252 267 282 290 293 292 290 290 292
175 180 182 189 188 202 206 204 209 208 208 205 197 202 198 209 218 216 211 208 208 200 205 206 211 211 216 214 207 208 213 212 224 242 267 288 298 295 295 298 297 291 296
188 180 183 190 202 203 208 205 210 211 211 208 202 211 205 214 210 214 210 207 204 203 212 210 214 211 213 214 214 214 220 225 238 253 277 291 294 294 297 294 299 306 302
192 179 190 200 199 205 209 209 212 218 215 210 206 214 208 218 211 216 213 209 206 207 214 214 214 215 218 219 225 229 233 238 240 257 274 286 288 286 296 303 303 300 297
199 197 192 201 194 208 205 208 215 218 213 214 209 217 214 214 217 215 215 212 212 217 219 217 217 221 226 228 233 240 244 244 249 257 270 274 280 280 295 298 293 299 294
209 205 221 208 205 206 210 213 214 212 210 211 220 215 219 215 214 216 213 214 217 224 227 227 227 230 235 239 240 244 247 244 249 255 262 269 274 282 288 294 295 296 293
221 219 221 214 211 203 207 213 212 209 213 216 220 224 228 220 219 214 214 216 225 229 231 234 235 235 238 240 241 240 238 243 245 252 266 273 274 284 290 290 293 298 293
203 216 210 212 211 206 212 208 213 213 216 217 220 230 230 229 222 224 212 233 243 242 240 240 241 242 243 243 240 239 240 243 247 255 262 266 274 279 282 290 286 301 301
202 209 208 220 231 220 228 217 209 219 218 222 226 221 232 226 232 223 221 243 244 247 244 249 246 243 243 243 241 243 246 250 257 261 268 275 279 279 275 288 285 288 291
212 209 220 231 237 230 240 226 222 205 217 225 228 232 230 226 233 235 239 246 239 244 248 251 247 245 242 243 245 245 249 253 258 262 271 270 279 287 282 283 282 278 278
214 217 208 222 230 231 245 235 233 212 217 227 225 233 236 235 235 254 253 253 242 247 240 253 248 252 249 249 244 243 250 253 259 266 269 277 282 287 286 283 286 273 278
215 211 217 220 229 228 243 227 221 216 219 224 223 225 234 236 243 251 254 257 257 252 249 260 265 269 256 247 244 247 251 252 256 264 268 271 277 282 285 284 281 280 278
210 218 227 213 221 227 238 230 224 240 229 226 221 226 231 234 235 248 252 259 251 249 253 259 261 275 271 268 256 245 246 247 253 259 263 268 272 275 279 282 281 279 276
194 201 218 215 230 239 240 230 230 237 232 234 239 242 245 254 253 250 259 255 256 259 257 257 263 269 277 273 271 274 255 251 254 260 267 272 278 281 282 282 282 276 278
209 215 219 220 226 226 233 237 239 235 239 248 254 240 240 251 249 247 257 256 255 257 262 265 266 269 274 283 281 276 273 257 258 262 267 273 277 282 283 288 289 280 277
223 229 222 220 224 224 230 233 239 245 249 250 249 248 253 253 248 250 254 254 251 258 262 266 269 273 274 269 276 273 277 273 268 270 269 279 273 278 282 284 287 283 269
233 233 232 237 234 228 228 230 235 241 243 240 250 253 254 260 266 268 267 258 256 259 267 271 272 272 275 269 275 276 274 273 272 275 272 277 280 278 277 283 284 275 278
244 247 250 250 248 247 248 247 246 244 247 248 250 251 255 258 256 255 259 262 262 265 270 273 273 278 275 270 273 272 275 268 268 272 275 278 280 277 276 283 274 273 267
245 246 249 252 255 258 259 258 258 259 258 259 258 257 257 257 258 259 260 261 264 266 266 270 270 266 272 276 273 269 270 272 276 278 277 277 269 273 278 277 279 273 272
243 246 248 249 252 253 255 258 260 262 263 262 262 262 262 262 261 260 258 261 262 262 262 266 270 270 270 270 266 269 272 279 274 275 276 277 274 270 273 276 275 278 270
253 253 253 254 253 254 255 257 258 259 260 261 261 261 261 260 259 260 262 262 263 265 265 266 269 269 269 270 273 273 275 275 279 276 277 276 275 275 277 273 277 281 280
261 258 260 262 264 265 266 267 265 262 259 259 259 259 260 259 259 258 258 259 258 260 262 264 266 267 270 272 273 272 270 274 273 277 276 279 275 281 275 275 276 276 279
273 273 271 274 271 270 270 269 273 271 269 266 264 262 259 258 258 258 258 258 257 258 260 261 262 265 267 270 272 274 275 275 274 275 274 275 277 281 280 281 279 280 271
270 273 275 275 272 271 269 274 277 277 279 280 272 267 266 264 260 258 259 260 260 259 261 262 264 267 269 270 271 272 272 271 276 275 275 271 274 273 280 280 280 273 273
268 267 265 266 266 268 268 270 266 270 274 278 279 277 274 272 269 263 261 261 264 263 263 263 262 263 266 268 269 269 272 272 268 268 271 273 268 266 271 270 266 265 267
Height
3076 3083 3094 3099 3105 3110 3114 3118 3123 3128 3132 3136 3141 3143 3145 3146 3149 3152 3153 3155 3159 3158 3161 3163 3165 3168 3170 3171 3171 3172 3174 3175 3176 3177 3178 3178 3178 3179 3179 3179 3179 3178 3178
3075 3083 3092 3098 3104 3109 3113 3116 3122 3127 3131 3136 3140 3142 3143 3145 3148 3150 3153 3154 3157 3157 3160 3163 3165 3167 3169 3170 3170 3172 3173 3174 3175 3176 3177 3177 3177 3178 3178 3177 3177 3177 3176
3075 3083 3092 3097 3103 3108 3112 3115 3118 3123 3129 3134 3138 3141 3142 3144 3147 3149 3151 3153 3155 3156 3158 3161 3164 3166 3168 3169 3170 3171 3172 3173 3174 3174 3175 3175 3175 3175 3176 3175 3175 3174 3174
3076 3083 3090 3096 3102 3106 3110 3112 3115 3121 3127 3131 3136 3140 3141 3144 3145 3148 3150 3151 3153 3154 3157 3159 3162 3164 3166 3168 3169 3169 3170 3171 3172 3172 3173 3173 3173 3173 3173 3173 3173 3171 3171
3075 3081 3088 3094 3100 3103 3108 3112 3113 3120 3127 3130 3134 3139 3140 3143 3143 3146 3148 3149 3151 3153 3156 3157 3160 3162 3164 3165 3167 3168 3168 3169 3169 3170 3170 3170 3170 3171 3170 3170 3170 3169 3168
3074 3079 3086 3091 3095 3101 3105 3109 3113 3117 3124 3128 3131 3136 3138 3140 3141 3143 3146 3147 3149 3151 3153 3155 3157 3159 3162 3163 3164 3165 3166 3167 3167 3167 3167 3168 3167 3167 3166 3167 3166 3165 3164
3072 3078 3082 3087 3091 3097 3102 3108 3112 3115 3120 3122 3128 3130 3134 3136 3137 3140 3143 3144 3147 3149 3151 3153 3155 3157 3159 3160 3161 3163 3164 3164 3164 3164 3164 3164 3165 3164 3163 3162 3161 3161 3161
3071 3074 3079 3083 3087 3093 3099 3104 3108 3112 3115 3120 3124 3127 3130 3132 3134 3136 3139 3142 3145 3146 3148 3150 3152 3154 3155 3156 3157 3159 3160 3161 3160 3160 3160 3160 3160 3159 3158 3157 3157 3157 3156
3068 3072 3075 3079 3083 3088 3093 3100 3105 3109 3113 3116 3120 3125 3126 3129 3133 3136 3136 3140 3143 3144 3146 3147 3148 3150 3151 3152 3153 3155 3156 3157 3156 3156 3156 3155 3155 3154 3153 3153 3152 3152 3151
3065 3071 3074 3077 3081 3085 3089 3093 3100 3106 3109 3112 3116 3120 3124 3128 3130 3131 3132 3137 3139 3141 3142 3143 3144 3145 3146 3148 3149 3150 3151 3152 3151 3151 3150 3150 3149 3149 3148 3148 3147 3146 3145
3065 3068 3072 3075 3079 3084 3087 3089 3092 3098 3105 3110 3114 3117 3120 3123 3125 3127 3130 3132 3133 3136 3138 3139 3139 3140 3142 3143 3144 3145 3146 3146 3146 3145 3144 3144 3143 3142 3141 3140 3140 3139 3139
3062 3066 3070 3073 3078 3080 3082 3085 3088 3095 3101 3106 3109 3113 3115 3118 3121 3123 3124 3125 3127 3131 3132 3131 3133 3135 3137 3138 3138 3140 3140 3140 3140 3139 3138 3138 3137 3136 3134 3133 3132 3131 3131
3059 3064 3066 3071 3076 3078 3080 3082 3085 3090 3095 3099 3103 3106 3109 3112 3115 3116 3117 3118 3120 3124 3124 3125 3126 3127 3129 3129 3132 3133 3133 3133 3132 3132 3132 3131 3130 3129 3128 3126 3125 3124 3123
3058 3062 3066 3070 3073 3075 3077 3081 3083 3087 3089 3093 3095 3098 3101 3103 3106 3108 3111 3113 3114 3116 3117 3118 3120 3120 3121 3122 3122 3123 3124 3124 3124 3124 3124 3124 3123 3121 3120 3118 3117 3115 3114
3054 3058 3062 3067 3070 3072 3074 3077 3078 3081 3084 3086 3089 3091 3094 3098 3099 3100 3103 3105 3107 3107 3108 3111 3111 3114 3114 3114 3115 3115 3114 3116 3116 3115 3114 3113 3112 3110 3108 3108 3106 3104 3103
3053 3055 3059 3062 3066 3068 3071 3074 3075 3077 3079 3082 3083 3084 3089 3090 3092 3094 3095 3097 3098 3099 3096 3103 3103 3106 3106 3105 3105 3105 3104 3106 3106 3105 3105 3103 3101 3099 3096 3095 3093 3091 3091
3052 3054 3056 3058 3059 3062 3065 3067 3069 3071 3073 3076 3077 3078 3080 3080 3082 3084 3086 3087 3088 3089 3085 3090 3092 3095 3095 3097 3097 3096 3096 3095 3094 3094 3093 3092 3090 3089 3086 3084 3082 3078 3077
3051 3052 3054 3055 3057 3057 3058 3060 3062 3064 3066 3067 3069 3071 3072 3074 3074 3076 3077 3079 3080 3081 3079 3079 3082 3082 3082 3085 3085 3084 3085 3083 3082 3082 3082 3080 3077 3076 3074 3072 3069 3067 3065
3048 3049 3050 3052 3052 3054 3055 3056 3056 3057 3057 3059 3061 3062 3063 3066 3065 3067 3068 3068 3069 3071 3070 3068 3069 3071 3069 3071 3071 3071 3071 3070 3069 3070 3069 3066 3066 3065 3061 3058 3056 3054 3052
3042 3045 3046 3048 3048 3049 3050 3050 3051 3051 3051 3052 3054 3054 3055 3055 3057 3058 3058 3058 3059 3059 3059 3057 3056 3058 3059 3058 3056 3055 3054 3058 3055 3055 3054 3053 3051 3049 3047 3045 3043 3040 3039
3035 3036 3038 3040 3042 3043 3044 3045 3045 3045 3045 3046 3046 3047 3047 3048 3049 3048 3048 3049 3049 3048 3048 3046 3043 3043 3044 3043 3045 3047 3041 3045 3041 3042 3039 3036 3036 3035 3034 3032 3030 3027 3025
3030 3030 3031 3032 3032 3034 3035 3036 3036 3036 3037 3037 3037 3038 3038 3038 3038 3038 3037 3038 3037 3035 3035 3034 3031 3029 3030 3030 3031 3033 3031 3030 3026 3031 3027 3021 3021 3021 3020 3017 3015 3012 3011
3022 3022 3023 3024 3025 3025 3026 3027 3027 3026 3025 3025 3026 3027 3026 3026 3027 3026 3026 3025 3025 3024 3022 3023 3017 3017 3017 3019 3019 3016 3017 3016 3014 3011 3010 3007 3006 3006 3002 3003 3001 2999 2997
3015 3016 3016 3016 3015 3016 3016 3016 3016 3014 3012 3012 3013 3013 3012 3013 3014 3014 3013 3011 3011 3011 3010 3008 3005 3003 3004 3004 3005 3003 3002 3001 2998 2996 2993 2989 2990 2988 2988 2986 2985 2982 2981
3005 3006 3007 3006 3006 3007 3007 3005 3003 3002 3000 3000 3000 2999 2999 2999 3000 3001 2999 2997 2997 2996 2997 2995 2994 2991 2992 2991 2990 2990 2986 2986 2980 2978 2976 2974 2973 2972 2969 2968 2967 2965 2963
2994 2993 2994 2993 2992 2992 2991 2992 2991 2991 2989 2987 2987 2986 2986 2984 2985 2986 2985 2985 2983 2983 2983 2980 2980 2977 2974 2974 2974 2974 2972 2968 2963 2962 2955 2958 2956 2953 2948 2947 2948 2949 2948